Погода Мирный

Погода Мирный : погода сейчас, прогноз погоды и архив. Всё, что Вы хотите узнать о погоде Мирный!

Хотите узнать прогноз погоды Мирный? Тогда Вам сюда: Погода Мирный

Поиск расширенной информации на нашем сайте:

Другие новости

Новости СМИ2

Главная страница сайта

Новости сайта

02.10.2013

Напоминаем, что на нашем новом сайте вы можете получить высокодетализированные прогнозы погоды по пунктам России, СНГ и мира (включающие важные для авиации метеовеличины, такие как направление и скорость ветра, видимость, явления погоды, количество и форма облачности, нижняя и верхняя граница облачности), а также ознакомиться с разнообразными материалами по авиационной метеорологии и подборкой полезных ссылок на эту тему.

Сайт Метеоцентр.Азия посвящён разработке технологий оптимизации авиаметеорологического обслуживания, включая проектирование и перспективное создание нескольких автоматизированных авиаметеорологических систем:
- система выпуска высокодетальных прогностических карт явлений погоды для нижнего воздушного пространства по России и ближнему зарубежью;
- система верификации прогнозов TAF (выпускаемых синоптиками официальных АМСГ РФ и ближнего зарубежья) и AUTOTAF (выпускаемых сайтом Метеоцентр.Азия) - выявление ошибок, онлайн-сопоставление с фактической погодой METAR, автоматическое внесение коррективов в прогнозы при резком отклонении фактической погоды от прогноза, подсчёт оправдываемости прогнозов по элементам и в целом;
- система обработки, анализа и отображения авиаметеорологической информации для применения провайдерами метеорологической информации.


Погода Мирный - сегодня

Время (UTC), дата Ветер
(°,м/с) 
Видим.   Явления Облачность Т
(°С)
Тd
(°С)
f(%) Тe
(°С)
Pmin
(гПа)
dP
(гПа)
Po
(мм)
O2
(г/м3)
Тmin Tmax R s Состояние
почвы
03 23.04.17 250 (З) 20000 м    10/3 1000 м верхняя 
[Sc|Ci fib]
+0.1 -7.1 58 -1  1026.4  2.3  736  297           
06 23.04.17 240 (ЮЗ) 20000 м    1/0 средняя 
[Ac trans]
+2.9 -8.6 42 +2  1026.3  0.2  737  294           
09 23.04.17 250 (З) 20000 м    1/0 средняя 
[Ac trans]
+3.6 -8.4 41 +2  1026.7  0.5  737  294           
12 23.04.17 270 (З) 20000 м    ясно 
+1.6 -9.3 44 +2  1027.5  0.4  737  296    +3.7       
15 23.04.17 тихо ()   20000 м    ясно 
-2.8 -9.4 60 -3  1029.2  0.9  738  301           
18 23.04.17 170 (Ю) 20000 м    ясно 
-3.8 -9.1 67 -3  1029.9  0.6  738  303           
21 23.04.17 220 (ЮЗ) 20000 м    ясно 
-7.2 -8.1 93 -9  1030.8  0.3  739  306           
00 24.04.17 270 (З) 20000 м    10/0 верхняя 
[Ci fib]
-0.4 -8.3 55 -1  1029.9  0.3  739  299  -8      15  равномерный
мокрый или
старый снег
100% 
03 24.04.17 250 (З) 20000 м    10/0 верхняя 
[Ci fib]
+4.9 -12.5 27 +3  1028.7  -0.4  739  293           
06 24.04.17 260 (З) 20000 м    10/0 средняя, верхняя 
[Ac trans|Ci sp]
+6.1 -11.6 27 +4  1027.1  -1.5  737  292           
09 24.04.17 270 (З) 20000 м    10/0 средняя, верхняя 
[Ac trans|Ci sp]
+5.8 -11.7 27 +4  1026.4  -0.7  737  292           
12 24.04.17 210 (ЮЗ) 20000 м    10/0 верхняя 
[Ci sp]
+3.4 -9.2 39 +4  1026.3  -0.3  737  294    +6.4       
15 24.04.17 260 (З) 20000 м    10/0 средняя, верхняя 
[Ac trans|Ci sp]
+1.8 -9 45 1026.3  -0.3  736  296           
18 24.04.17 240 (ЮЗ) 20000 м    10/0 средняя, верхняя 
[Ac trans|Ci fib]
+0.8 -8.5 50 -1  1021.6  -0.3  736  297           
21 24.04.17 260 (З) 20000 м    10/0 средняя 
[Ac As]
+2.2 -8.8 44 1025.7  -0.1  736  295           
00 25.04.17 240 (ЮЗ) 20000 м    10/0 средняя 
[As op]
+5.3 -6 44 +6  1024.5  -0.7  736  291  +0      13  равномерный
мокрый или
старый снег
100% 
03 25.04.17 220 (ЮЗ) 20000 м    10/0 средняя, верхняя 
[Ac lent|Cs]
+10.1 -6.3 31 +10  1022.7  -1  735  286           
06 25.04.17 250 (З) 20000 м    10/0 средняя, верхняя 
[Ac trans|Ci fib]
+10 -6.5 31 +9  1021.1  -1.7  734  286           
09 25.04.17 260 (З) 20000 м    9/0 средняя 
[Ac As]
+9.4 -6.7 31 +8  1019.1  -1.8  732  286           
12 25.04.17 220 (ЮЗ) 20000 м    10/3 600 м кучево-дожд., средняя 
[Cb cap|Ac As]
+7.2 -8.6 31 +8  1017.1  -1.9  731  288    +11       
15 25.04.17 230 (ЮЗ) 20000 м    10/0 средняя 
[Ac As]
+5 -9.9 33 +4  1015.5  -2.4  729  289           
18 25.04.17 250 (З) 20000 м    10/0 средняя 
[Ac As]
+5.7 -8.5 35 +4  1012.7  -2.5  727  288           
21 25.04.17 260 (З) 20000 м    8/0 средняя 
[Ac trans]
+4.1 -3.8 56 +2  1012.5  -0.4  727  289           
00 26.04.17 310 (СЗ) 7-12{13}  20000 м    8/4 1000 м средняя 
[Sc|Ac trans]
+4.7 -3.7 54 +2  1012.7  0.2  727  288  +3.8      11  равномерный
мокрый или
старый снег
100% 
03 26.04.17 310 (СЗ) 10-15{17}  20000 м    6/6 1000 м 
[Sc]
+4.8 -5.5 47 +1  1013.5  0.8  728  289           
Время (UTC), дата Ветер
(°,м/с) 
Видим.   Явления Облачность Т
(°С)
Тd
(°С)
f(%) Тe
(°С)
Pmin
(гПа)
dP
(гПа)
Po
(мм)
O2
(г/м3)
Тmin Tmax R s Состояние
почвы

Для получения пояснительной информации подведите курсор к названию столбца.

ПОГОДА Мирный - архив

Всё, что Вы хотите узнать о погоде Мирный - удобно и подробно!

Выберите нужную дату (начиная с 1 января 2015* года) и нажмите кнопку "Найти".
Будут отображены архивные сводки погоды по пункту Мирный, начиная с указанной даты.


Отображать данные в формате CSV (для использования в таблицах Excel)


Внимание! Наш архив погоды предназначен исключительно для личного некоммерческого использования в познавательных целях. Если Вам необходимы официальные справки о состоянии погоды (для производственных, юридических, коммерческих и т.п. целей), обращайтесь в органы Росгидромета.

*Примечание: данная дата относится к архиву по метеостанциям СССР (Россия, СНГ, Балтия).
Архив по метеостанциям Зарубежной Европы и Азии (кроме Китая) хранится 10 дней, по другим регионам земного шара (Китай, Африка, Америка, Австралия, Океания) - 1 день.

Мирный - район местоположения метеостанции


Название, широта, долгота, высота метеостанции:
Мирный 62.5°ш. 114.0°д. 352 м над ур. моря [Российская Федерация]

Дополнительная информация

В oтличие oт бoльшинства пoгoдных сайтoв мы публикуем пoдрoбную метеoинфoрмацию в детальнoм прoфессиoнальнoм фoрмате.

Характеристики температуры и влажнoсти вoздуха измеряются на высoте 2 м в тени вдали oт зданий и деревьев.
Скoрoсть ветра измеряется на высoте 10 м (на урoвне рoста челoвека скoрoсть ветра ниже в 1.5-2 раза). Если метеoстанция нахoдится в гoрoде или в лесу, тo скoрoсть ветра занижена на 2-4 м/с пo сравнению с oткрытым местoм. Скoрoсть ветра над акватoриями крупных рек и oзёр, а также на вершинах хoлмoв на 2-5 м/с выше, чем в oбычных услoвиях.
Атмoсфернoе давление в разных тoчках местнoсти мoжет значительнo oтличаться oт давления на метеoстанции, в зависимoсти oт услoвий рельефа (при пoдъёме на 10 м давление пoнижается примернo на 1 мм рт.ст.).